Radiation Dose at Monitoring Post of Fukushima Daini Nuclear Power Station
Date,Time,MP-1(microSv/h),MP-2(microSv/h),MP-3(microSv/h),MP-4(microSv/h),MP-5(microSv/h),MP-6(microSv/h),MP-7(microSv/h),Wind Direction,Wind Velocity(m/s),Rain
2021/06/27,00:00,0.165,0.154,0.245,0.239,0.234,0.131,0.081,-,CALM,No
2021/06/27,00:10,0.166,0.152,0.244,0.237,0.234,0.130,0.082,-,CALM,No
2021/06/27,00:20,0.165,0.153,0.245,0.238,0.235,0.131,0.082,south,2.3,No
2021/06/27,00:30,0.166,0.153,0.244,0.238,0.235,0.131,0.082,south-southwest,3.0,No
2021/06/27,00:40,0.167,0.156,0.245,0.237,0.238,0.131,0.082,south-southwest,2.4,No
2021/06/27,00:50,0.166,0.153,0.246,0.239,0.235,0.131,0.082,south-southwest,1.0,No
2021/06/27,01:00,0.167,0.154,0.245,0.237,0.236,0.130,0.082,south-southeast,1.3,No
2021/06/27,01:10,0.166,0.154,0.246,0.241,0.235,0.132,0.083,south-southeast,1.8,No
2021/06/27,01:20,0.167,0.155,0.244,0.237,0.234,0.131,0.082,south-southeast,1.5,No
2021/06/27,01:30,0.166,0.154,0.246,0.240,0.237,0.132,0.083,south,1.9,No
2021/06/27,01:40,0.167,0.154,0.243,0.237,0.234,0.131,0.082,south-southwest,2.7,No
2021/06/27,01:50,0.167,0.155,0.247,0.239,0.236,0.132,0.083,south,2.8,No
2021/06/27,02:00,0.165,0.154,0.245,0.238,0.233,0.131,0.082,south,2.4,No
2021/06/27,02:10,0.167,0.154,0.245,0.238,0.235,0.132,0.082,south,2.7,No
2021/06/27,02:20,0.165,0.154,0.246,0.238,0.235,0.131,0.082,south-southeast,2.8,No
2021/06/27,02:30,0.168,0.155,0.245,0.237,0.233,0.130,0.083,south,2.1,No
2021/06/27,02:40,0.166,0.155,0.245,0.239,0.236,0.133,0.083,south,1.7,No
2021/06/27,02:50,0.167,0.156,0.245,0.237,0.233,0.131,0.082,south-southeast,1.6,No
2021/06/27,03:00,0.166,0.154,0.246,0.240,0.237,0.132,0.083,south-southeast,1.1,No
2021/06/27,03:10,0.167,0.156,0.245,0.238,0.236,0.132,0.083,east-southeast,0.6,No
2021/06/27,03:20,0.168,0.155,0.246,0.239,0.236,0.131,0.084,east-southeast,0.6,No
2021/06/27,03:30,0.166,0.155,0.245,0.237,0.237,0.133,0.082,-,CALM,No
2021/06/27,03:40,0.168,0.155,0.247,0.240,0.236,0.132,0.084,-,CALM,No
2021/06/27,03:50,0.167,0.156,0.245,0.238,0.237,0.133,0.082,-,CALM,No
2021/06/27,04:00,0.168,0.155,0.247,0.239,0.235,0.132,0.083,north,0.6,No
2021/06/27,04:10,0.167,0.155,0.244,0.239,0.238,0.132,0.083,north-northwest,1.0,No
2021/06/27,04:20,0.167,0.155,0.247,0.238,0.236,0.132,0.083,north-northwest,1.8,No
2021/06/27,04:30,0.168,0.157,0.245,0.240,0.236,0.133,0.083,north,2.2,No
2021/06/27,04:40,0.167,0.154,0.248,0.239,0.236,0.131,0.083,north,3.3,No
2021/06/27,04:50,0.168,0.156,0.246,0.240,0.236,0.132,0.084,north-northwest,3.9,No
2021/06/27,05:00,0.166,0.154,0.248,0.238,0.237,0.132,0.082,north,4.0,No
2021/06/27,05:10,0.168,0.156,0.246,0.239,0.236,0.132,0.084,north-northwest,3.9,No
2021/06/27,05:20,0.168,0.155,0.247,0.237,0.237,0.133,0.083,north-northwest,3.7,No
2021/06/27,05:30,0.167,0.155,0.245,0.240,0.235,0.131,0.083,north-northwest,3.8,No
2021/06/27,05:40,0.167,0.155,0.246,0.238,0.235,0.132,0.082,north-northwest,4.9,No
2021/06/27,05:50,0.166,0.154,0.245,0.240,0.236,0.130,0.082,north-northwest,4.3,No
2021/06/27,06:00,0.167,0.155,0.245,0.237,0.234,0.133,0.083,north-northwest,3.7,No
2021/06/27,06:10,0.167,0.156,0.246,0.237,0.236,0.131,0.082,north-northwest,3.3,No
2021/06/27,06:20,0.168,0.156,0.244,0.239,0.234,0.131,0.083,north-northwest,4.6,No
2021/06/27,06:30,0.167,0.154,0.246,0.236,0.234,0.132,0.082,north-northwest,4.2,No
2021/06/27,06:40,0.167,0.153,0.244,0.240,0.235,0.131,0.082,north-northwest,2.8,No
2021/06/27,06:50,0.168,0.154,0.245,0.237,0.234,0.132,0.083,north-northeast,1.3,No
2021/06/27,07:00,0.167,0.154,0.246,0.237,0.233,0.132,0.082,north-northwest,1.8,No
2021/06/27,07:10,0.167,0.153,0.245,0.238,0.237,0.130,0.082,north-northwest,2.0,No
2021/06/27,07:20,0.167,0.152,0.242,0.238,0.233,0.131,0.082,north-northwest,1.7,No
2021/06/27,07:30,0.165,0.154,0.242,0.235,0.231,0.131,0.081,west-northwest,2.0,No
2021/06/27,07:40,0.165,0.154,0.243,0.234,0.235,0.130,0.082,northeast,1.2,No
2021/06/27,07:50,0.167,0.154,0.241,0.235,0.236,0.131,0.082,north,1.5,No
2021/06/27,08:00,0.167,0.155,0.242,0.239,0.235,0.132,0.082,north-northeast,1.7,No
2021/06/27,08:10,0.165,0.153,0.243,0.239,0.233,0.131,0.081,north-northeast,1.3,No
2021/06/27,08:20,0.166,0.152,0.243,0.237,0.233,0.131,0.082,east-northeast,1.1,No
2021/06/27,08:30,0.167,0.152,0.242,0.236,0.233,0.131,0.081,northeast,1.3,No
2021/06/27,08:40,0.166,0.153,0.243,0.236,0.233,0.131,0.081,east-northeast,1.7,No
2021/06/27,08:50,0.165,0.154,0.243,0.235,0.233,0.130,0.081,northeast,1.5,No
2021/06/27,09:00,0.164,0.154,0.242,0.236,0.233,0.130,0.081,northeast,1.3,No
2021/06/27,09:10,0.166,0.153,0.243,0.235,0.232,0.130,0.081,northeast,1.4,No
2021/06/27,09:20,0.167,0.153,0.243,0.236,0.233,0.130,0.081,east,0.9,No
2021/06/27,09:30,0.165,0.153,0.243,0.235,0.232,0.130,0.081,-,CALM,No
2021/06/27,09:40,0.165,0.153,0.243,0.234,0.234,0.131,0.082,east-southeast,0.9,No
2021/06/27,09:50,0.166,0.154,0.244,0.235,0.232,0.130,0.082,east-northeast,1.9,No
2021/06/27,10:00,0.168,0.154,0.247,0.235,0.237,0.130,0.082,east-northeast,1.2,No
2021/06/27,10:10,0.167,0.154,0.247,0.239,0.237,0.130,0.082,east,1.4,No
2021/06/27,10:20,0.166,0.153,0.246,0.239,0.236,0.130,0.082,east-southeast,1.9,No
2021/06/27,10:30,0.166,0.154,0.244,0.238,0.236,0.130,0.082,east,1.3,No
2021/06/27,10:40,0.165,0.153,0.244,0.237,0.234,0.130,0.082,east-southeast,1.6,No
2021/06/27,10:50,0.165,0.155,0.243,0.237,0.234,0.131,0.082,east-northeast,1.2,No
2021/06/27,11:00,0.166,0.154,0.243,0.236,0.233,0.130,0.083,east,1.6,No
2021/06/27,11:10,0.167,0.154,0.244,0.236,0.231,0.129,0.082,east,0.8,No
2021/06/27,11:20,0.167,0.153,0.242,0.236,0.233,0.131,0.082,east,0.7,No
2021/06/27,11:30,0.165,0.152,0.243,0.235,0.232,0.131,0.081,-,CALM,No
2021/06/27,11:40,0.165,0.153,0.243,0.236,0.232,0.130,0.081,east,1.3,No
2021/06/27,11:50,0.165,0.152,0.242,0.236,0.233,0.130,0.081,east,1.8,No
2021/06/27,12:00,0.164,0.153,0.243,0.236,0.232,0.130,0.081,east-southeast,0.9,No
2021/06/27,12:10,0.164,0.154,0.244,0.236,0.232,0.130,0.079,-,CALM,No
2021/06/27,12:20,0.166,0.154,0.245,0.235,0.231,0.130,0.080,east,0.7,No
2021/06/27,12:30,0.166,0.153,0.247,0.235,0.233,0.131,0.081,east,0.6,No
2021/06/27,12:40,0.165,0.153,0.247,0.235,0.232,0.131,0.082,east,1.4,No
2021/06/27,12:50,0.166,0.151,0.245,0.236,0.233,0.131,0.082,east-southeast,0.7,No
2021/06/27,13:00,0.165,0.152,0.244,0.237,0.233,0.130,0.081,east-southeast,0.8,No
2021/06/27,13:10,0.164,0.152,0.243,0.239,0.235,0.130,0.081,east-southeast,1.4,No
2021/06/27,13:20,0.166,0.154,0.242,0.240,0.237,0.130,0.081,east,0.8,No
2021/06/27,13:30,0.166,0.153,0.243,0.238,0.237,0.130,0.081,-,CALM,No
2021/06/27,13:40,0.166,0.153,0.244,0.238,0.236,0.131,0.080,-,CALM,No
2021/06/27,13:50,0.165,0.152,0.244,0.237,0.233,0.130,0.081,-,CALM,No
2021/06/27,14:00,0.164,0.152,0.247,0.236,0.233,0.129,0.081,east-southeast,1.0,No
2021/06/27,14:10,0.165,0.153,0.248,0.235,0.231,0.129,0.082,-,CALM,No
2021/06/27,14:20,0.166,0.153,0.246,0.238,0.231,0.130,0.080,east-southeast,1.2,No
2021/06/27,14:30,0.167,0.154,0.243,0.239,0.236,0.130,0.080,southeast,0.6,No
2021/06/27,14:40,0.165,0.153,0.243,0.237,0.237,0.130,0.081,-,CALM,No
2021/06/27,14:50,0.163,0.152,0.244,0.236,0.234,0.130,0.081,east-southeast,0.9,No
2021/06/27,15:00,0.166,0.154,0.248,0.236,0.233,0.129,0.082,-,CALM,No
2021/06/27,15:10,0.167,0.154,0.245,0.239,0.232,0.130,0.081,east-southeast,1.5,No
2021/06/27,15:20,0.165,0.155,0.244,0.240,0.236,0.130,0.082,east,1.3,No
2021/06/27,15:30,0.163,0.152,0.243,0.238,0.236,0.130,0.081,east,0.8,No
2021/06/27,15:40,0.166,0.155,0.247,0.236,0.234,0.128,0.082,east-northeast,1.4,No
2021/06/27,15:50,0.167,0.154,0.246,0.237,0.232,0.130,0.081,east-northeast,2.0,No
2021/06/27,16:00,0.166,0.153,0.245,0.239,0.236,0.131,0.081,east-northeast,1.4,No
2021/06/27,16:10,0.165,0.153,0.245,0.237,0.237,0.130,0.081,east-northeast,1.4,No
2021/06/27,16:20,0.167,0.154,0.246,0.236,0.233,0.130,0.082,east-northeast,1.2,No
2021/06/27,16:30,0.167,0.153,0.244,0.239,0.232,0.130,0.082,northeast,1.2,No
2021/06/27,16:40,0.164,0.152,0.243,0.239,0.236,0.131,0.080,northeast,0.9,No
2021/06/27,16:50,0.167,0.155,0.245,0.237,0.235,0.129,0.081,northeast,1.1,No
2021/06/27,17:00,0.167,0.153,0.246,0.237,0.234,0.129,0.081,east-northeast,0.9,No
2021/06/27,17:10,0.165,0.153,0.243,0.240,0.234,0.131,0.081,east-northeast,1.1,No
2021/06/27,17:20,0.165,0.154,0.246,0.238,0.236,0.130,0.081,-,CALM,No
2021/06/27,17:30,0.167,0.154,0.245,0.237,0.234,0.129,0.081,-,CALM,No
2021/06/27,17:40,0.165,0.153,0.244,0.240,0.232,0.130,0.080,northeast,1.2,No
2021/06/27,17:50,0.165,0.155,0.246,0.238,0.236,0.130,0.081,northeast,1.2,No
2021/06/27,18:00,0.167,0.153,0.245,0.237,0.235,0.130,0.081,northeast,1.3,No
2021/06/27,18:10,0.165,0.152,0.243,0.240,0.232,0.130,0.081,north-northeast,1.8,No
2021/06/27,18:20,0.166,0.154,0.247,0.238,0.236,0.131,0.081,north-northeast,1.7,No
2021/06/27,18:30,0.166,0.154,0.246,0.237,0.235,0.130,0.082,north-northeast,0.8,No
2021/06/27,18:40,0.165,0.154,0.244,0.240,0.232,0.129,0.080,north-northeast,0.9,No
2021/06/27,18:50,0.166,0.154,0.247,0.239,0.235,0.130,0.081,north,2.0,No
2021/06/27,19:00,0.167,0.153,0.245,0.238,0.234,0.130,0.081,north-northwest,1.8,No
2021/06/27,19:10,0.165,0.154,0.244,0.240,0.233,0.129,0.081,north-northwest,1.7,No
2021/06/27,19:20,0.166,0.153,0.246,0.237,0.236,0.130,0.081,north,1.6,No
2021/06/27,19:30,0.167,0.154,0.246,0.237,0.234,0.130,0.081,north,2.8,No
2021/06/27,19:40,0.165,0.153,0.246,0.240,0.234,0.129,0.080,north,2.7,No
2021/06/27,19:50,0.167,0.153,0.246,0.238,0.236,0.130,0.082,north-northwest,3.1,No
2021/06/27,20:00,0.166,0.154,0.244,0.238,0.233,0.130,0.081,north-northwest,3.5,No
2021/06/27,20:10,0.165,0.153,0.247,0.239,0.234,0.130,0.081,north-northwest,3.4,No
2021/06/27,20:20,0.167,0.153,0.246,0.236,0.236,0.131,0.081,north-northwest,4.2,No
2021/06/27,20:30,0.166,0.155,0.245,0.239,0.233,0.130,0.081,north-northwest,5.0,No
2021/06/27,20:40,0.166,0.154,0.247,0.239,0.235,0.131,0.081,north-northwest,5.2,No
2021/06/27,20:50,0.167,0.154,0.244,0.237,0.236,0.130,0.082,north-northwest,5.5,No
2021/06/27,21:00,0.166,0.155,0.246,0.240,0.233,0.130,0.081,north-northwest,5.8,No
2021/06/27,21:10,0.166,0.152,0.247,0.239,0.236,0.131,0.082,north-northwest,5.8,No
2021/06/27,21:20,0.167,0.155,0.245,0.239,0.235,0.131,0.082,north-northwest,5.5,No
2021/06/27,21:30,0.166,0.153,0.248,0.240,0.234,0.131,0.081,north-northwest,5.4,No
2021/06/27,21:40,0.167,0.155,0.245,0.238,0.237,0.131,0.082,north-northwest,5.5,No
2021/06/27,21:50,0.166,0.154,0.245,0.239,0.234,0.130,0.082,north-northwest,5.7,No
2021/06/27,22:00,0.165,0.153,0.247,0.239,0.235,0.131,0.082,north-northwest,6.0,No
2021/06/27,22:10,0.166,0.156,0.244,0.238,0.236,0.131,0.082,north-northwest,6.1,No
2021/06/27,22:20,0.167,0.154,0.246,0.240,0.232,0.130,0.081,north-northwest,5.4,No
2021/06/27,22:30,0.166,0.154,0.244,0.238,0.236,0.130,0.082,north-northwest,4.9,Yes
2021/06/27,22:40,0.167,0.155,0.245,0.239,0.235,0.131,0.081,north-northwest,5.5,Yes
2021/06/27,22:50,0.166,0.153,0.246,0.239,0.236,0.130,0.082,north-northwest,5.8,No
2021/06/27,23:00,0.167,0.155,0.245,0.237,0.237,0.131,0.082,north-northwest,5.6,No
2021/06/27,23:10,0.167,0.154,0.247,0.240,0.234,0.131,0.082,north-northwest,6.2,No
2021/06/27,23:20,0.167,0.154,0.245,0.238,0.236,0.130,0.082,north-northwest,5.8,No
2021/06/27,23:30,0.167,0.155,0.247,0.238,0.235,0.131,0.082,north-northwest,6.4,No
2021/06/27,23:40,0.167,0.153,0.246,0.239,0.233,0.132,0.081,north-northwest,6.8,No
2021/06/27,23:50,0.166,0.155,0.246,0.237,0.236,0.131,0.082,north-northwest,6.7,No
